Dallas Addison, TX

9:41 AM CDT on May 20, 2018 (GMT -0500)
Addison

Weather History for KADS - March, 2013

Change the Weather History Date:

Tuesday, March 12, 2013

  Actual Average Record
Temperature  
Mean Temperature 52 °F -  
Max Temperature 64 °F 62 °F 87 °F (2005)
Min Temperature 41 °F 46 °F 24 °F (1998)
Degree Days  
Heating Degree Days 12    
Growing Degree Days 2 (Base 50)    
Moisture  
Dew Point 25 °F    
Average Humidity 38    
Maximum Humidity 67    
Minimum Humidity 20    
Precipitation  
Precipitation 0.00 in - - ()
Sea Level Pressure  
Sea Level Pressure 30.15 in    
Wind  
Wind Speed 6 mph (East)    
Max Wind Speed 13 mph    
Max Gust Speed 23 mph    
Visibility 12 miles    
Events      
Averages and records for this station are not official NWS values.
T = Trace of Precipitation, MM = Missing Value Source: NWS Daily Summary

Daily Weather History Graph

Daily Weather History Graph

Search for Another Location

Airport or City:

Astronomy

Mar. 12, 2013 Rise Set
Actual Time 7:41 AM CDT 7:33 PM CDT
Civil Twilight 7:16 AM CDT 7:57 PM CDT
Nautical Twilight 6:47 AM CDT 8:26 PM CDT
Astronomical Twilight 6:19 AM CDT 8:55 PM CDT
Moon 7:53 AM CDT (3/12) 8:42 PM CDT (3/12)
Length of Visible Light 12h 41m
Length of Day
11h 52m
New Moon, 1% of the Moon is Illuminated
Mar 12
New Moon
Mar 19
First Quarter
Mar 27
Full
Apr 2
Last Quarter
Apr 10
New

Hourly Weather History & Observations

Time (CDT) Temp. Windchill Dew Point Humidity Pressure Visibility Wind Dir Wind Speed Gust Speed Precip Events Conditions
12:15 AM 50.0 °F - 24.8 °F 37% 30.06 in 10.0 mi SSE 6.9 mph - N/A   Clear
12:35 AM 50.0 °F - 23.0 °F 35% 30.05 in 10.0 mi SE 8.1 mph - N/A   Clear
12:55 AM 48.2 °F - 23.0 °F 37% 30.06 in 10.0 mi SE 9.2 mph - N/A   Clear
1:15 AM 46.4 °F 43.5 °F 23.0 °F 40% 30.06 in 10.0 mi SSE 5.8 mph - N/A   Clear
1:35 AM 48.2 °F - 21.2 °F 34% 30.07 in 10.0 mi South 4.6 mph - N/A   Clear
1:55 AM 46.4 °F 43.5 °F 23.0 °F 40% 30.06 in 10.0 mi SE 5.8 mph - N/A   Clear
2:15 AM 42.8 °F 41.1 °F 26.6 °F 53% 30.06 in 10.0 mi SSE 3.5 mph - N/A   Clear
2:35 AM 44.6 °F 42.2 °F 26.6 °F 49% 30.06 in 10.0 mi SE 4.6 mph - N/A   Clear
2:55 AM 44.6 °F 40.7 °F 23.0 °F 43% 30.05 in 10.0 mi SE 6.9 mph - N/A   Clear
3:15 AM 46.4 °F 43.5 °F 21.2 °F 37% 30.04 in 10.0 mi SE 5.8 mph - N/A   Clear
3:35 AM 46.4 °F 43.5 °F 23.0 °F 40% 30.03 in 10.0 mi ESE 5.8 mph - N/A   Clear
3:55 AM 44.6 °F 43.1 °F 23.0 °F 43% 30.05 in 10.0 mi SE 3.5 mph - N/A   Clear
4:15 AM 42.8 °F 41.1 °F 24.8 °F 49% 30.05 in 10.0 mi SE 3.5 mph - N/A   Clear
4:35 AM 44.6 °F 41.4 °F 23.0 °F 43% 30.06 in 10.0 mi SSE 5.8 mph - N/A   Clear
4:55 AM 42.8 °F 40.1 °F 24.8 °F 49% 30.06 in 10.0 mi SSE 4.6 mph - N/A   Clear
5:15 AM 44.6 °F 40.7 °F 21.2 °F 39% 30.07 in 10.0 mi South 6.9 mph - N/A   Clear
5:35 AM 44.6 °F 43.1 °F 23.0 °F 43% 30.08 in 10.0 mi South 3.5 mph - N/A   Clear
5:50 AM 42.8 °F 41.1 °F 23.0 °F 46% 30.09 in 13.0 mi SSE 3.5 mph - N/A   Clear
5:55 AM 41.0 °F - 24.8 °F 53% 30.09 in 10.0 mi Calm Calm - N/A   Clear
6:47 AM 44.6 °F 41.4 °F 21.2 °F 39% 30.10 in 13.0 mi ESE 5.8 mph - N/A   Clear
7:48 AM 42.8 °F 39.3 °F 23.0 °F 46% 30.12 in 13.0 mi ESE 5.8 mph - N/A   Clear
8:55 AM 46.4 °F 43.5 °F 24.8 °F 43% 30.17 in 20.0 mi East 5.8 mph - N/A   Clear
9:47 AM 51.8 °F - 23.0 °F 33% 30.19 in 15.0 mi East 6.9 mph - N/A   Clear
10:47 AM 55.4 °F - 44.6 °F 67% 30.22 in 13.0 mi ESE 11.5 mph - N/A   Partly Cloudy
11:47 AM 59.0 °F - 48.2 °F 67% 30.21 in 20.0 mi East 12.7 mph 18.4 mph N/A   Scattered Clouds
12:47 PM 60.8 °F - 21.2 °F 22% 30.20 in 20.0 mi East 11.5 mph 20.7 mph N/A   Scattered Clouds
1:47 PM 62.6 °F - 23.0 °F 22% 30.19 in 20.0 mi ENE 8.1 mph 23.0 mph N/A   Scattered Clouds
2:50 PM 62.6 °F - 21.2 °F 20% 30.19 in 13.0 mi East 6.9 mph - N/A   Scattered Clouds
3:52 PM 64.4 °F - 23.0 °F 21% 30.19 in 13.0 mi NE 8.1 mph - N/A   Scattered Clouds
4:55 PM 64.4 °F - 23.0 °F 21% 30.18 in 15.0 mi ENE 3.5 mph - N/A   Scattered Clouds
5:47 PM 64.4 °F - 24.8 °F 22% 30.19 in 20.0 mi NE 9.2 mph - N/A   Partly Cloudy
6:50 PM 62.6 °F - 24.8 °F 24% 30.21 in 13.0 mi North 9.2 mph - N/A   Scattered Clouds
7:47 PM 59.0 °F - 24.8 °F 27% 30.23 in 13.0 mi North 9.2 mph - N/A   Scattered Clouds
8:52 PM 57.2 °F - 24.8 °F 29% 30.26 in 13.0 mi North 5.8 mph - N/A   Scattered Clouds
9:48 PM 57.2 °F - 24.8 °F 29% 30.28 in 13.0 mi North 8.1 mph - N/A   Scattered Clouds
10:15 PM 55.4 °F - 26.6 °F 33% 30.29 in 10.0 mi NNE 5.8 mph - N/A   Clear
10:35 PM 55.4 °F - 26.6 °F 33% 30.30 in 10.0 mi North 5.8 mph - N/A   Clear
10:55 PM 55.4 °F - 26.6 °F 33% 30.30 in 10.0 mi NNE 6.9 mph - N/A   Clear
11:15 PM 53.6 °F - 28.4 °F 38% 30.30 in 10.0 mi NNE 4.6 mph - N/A   Clear
11:35 PM 53.6 °F - 28.4 °F 38% 30.31 in 10.0 mi NNE 5.8 mph - N/A   Clear
11:55 PM 53.6 °F - 30.2 °F 41% 30.31 in 10.0 mi NNE 4.6 mph - N/A   Clear